FW4505 Nea Kallikrateia GR current weather conditions

sailwx.info

Wind from 160 at 16 knots gusting 17

Air temperature 28.9° C
Dewpoint 19.2° C

Last reported at 2020-Aug-06 09:10 UTC.
Time now 2020-Aug-06 09:56 UTC

Location: N 40°19' E 023°05'.
View on Google Maps.

See reports from other nearby stations

  
Tides and Currents Weather Stations Pressure Air Temp Water Temp Dewpoint Dewpoint Depression Visibility Wind Speed Wind Dir Waves Ship Positions
date/time (UTC)wind fromknots sea level pressurealtimeterstation pressurevisibilityair tempwater tempwave heightnotes
2020-Aug-06 09:10 160 16 gusting 17 28.9
2020-Aug-06 09:00 127 14 gusting 14 28.9
2020-Aug-06 08:50 135 13 gusting 15 28.3
2020-Aug-06 08:40 112 10 gusting 13 28.3
2020-Aug-06 08:30 146 11 gusting 13 27.8
2020-Aug-06 08:20 144 10 gusting 11 28.3
2020-Aug-06 08:10 156 14 gusting 13 27.8
2020-Aug-06 08:00 147 10 gusting 13 27.8
2020-Aug-06 07:50 112 8 gusting 12 27.8
2020-Aug-06 07:40 156 7 gusting 9 27.2
2020-Aug-06 07:30 136 6 gusting 6 27.2
2020-Aug-06 07:20 128 2 gusting 7 26.7
2020-Aug-06 07:10 126 7 gusting 7 26.7
2020-Aug-06 07:00 119 5 gusting 7 26.1
2020-Aug-06 06:50 147 6 gusting 6 25.6
2020-Aug-06 06:40 150 3 gusting 6 26.1
2020-Aug-06 06:30 134 4 gusting 6 25.0
2020-Aug-06 06:20 133 1 gusting 3 25.6
2020-Aug-06 06:10 156 2 gusting 3 25.0
2020-Aug-06 06:00 25.6
2020-Aug-06 05:50 068 25.6
2020-Aug-06 05:40 068 25.0
2020-Aug-06 05:30 068 0 gusting 0 25.0
2020-Aug-06 05:20 068 24.4
2020-Aug-06 05:10 068 24.4
2020-Aug-06 05:00 068 24.4
2020-Aug-06 04:50 23.3
2020-Aug-06 04:40 068 23.3
2020-Aug-06 04:30 068 23.3
2020-Aug-06 04:20 068 22.8
2020-Aug-06 04:10 068 23.3
2020-Aug-06 04:00 068 0 gusting 0 23.3
2020-Aug-06 03:50 068 23.3
2020-Aug-06 03:40 068 23.3
2020-Aug-06 03:30 068 23.3
2020-Aug-06 03:20 068 22.8
2020-Aug-06 03:10 068 23.3
2020-Aug-06 03:00 23.3
2020-Aug-06 02:50 022 22.8
2020-Aug-06 02:40 022 23.3
2020-Aug-06 02:30 345 23.3
2020-Aug-06 02:20 337 22.8
2020-Aug-06 02:10 22.8
2020-Aug-06 02:00 337 23.3
2020-Aug-06 01:50 337 22.8
2020-Aug-06 01:40 337 22.8
2020-Aug-06 01:30 337 22.2
2020-Aug-06 01:20 21.7
2020-Aug-06 01:10 314 22.2
2020-Aug-06 01:00 314 21.7
2020-Aug-06 00:50 314 21.7
2020-Aug-06 00:40 314 21.7
2020-Aug-06 00:30 314 22.2
2020-Aug-06 00:20 314 22.2
2020-Aug-06 00:10 314 21.7
2020-Aug-06 00:00 314 1 gusting 1 21.7
2020-Aug-05 23:50 314 0 gusting 1 21.7
2020-Aug-05 23:40 314 3 gusting 4 21.1
2020-Aug-05 23:30 314 1 gusting 5 21.1
2020-Aug-05 23:20 314 3 gusting 5 21.1
2020-Aug-05 23:10 314 2 gusting 3 21.7
2020-Aug-05 23:00 314 2 gusting 5 21.7
2020-Aug-05 22:50 314 5 gusting 5 21.7
2020-Aug-05 22:40 314 2 gusting 3 21.7
2020-Aug-05 22:30 314 0 gusting 1 22.2
2020-Aug-05 22:20 314 22.2
2020-Aug-05 22:10 314 1 gusting 1 23.3
2020-Aug-05 22:00 314 23.3
2020-Aug-05 21:50 297 23.3
2020-Aug-05 21:40 337 23.3
2020-Aug-05 21:30 337 23.9
2020-Aug-05 21:20 337 22.2
2020-Aug-05 21:10 337 0 gusting 0 22.2
2020-Aug-05 21:00 337 1 gusting 2 21.7
2020-Aug-05 20:50 21.7
2020-Aug-05 20:40 337 1 gusting 2 21.7
2020-Aug-05 20:30 337 1 gusting 1 21.7
2020-Aug-05 20:20 328 3 gusting 5 21.1
2020-Aug-05 20:10 003 8 gusting 11 20.6
2020-Aug-05 20:00 340 9 gusting 10 20.6
2020-Aug-05 19:50 008 7 gusting 9 21.1
2020-Aug-05 19:40 018 2 gusting 7 22.8
2020-Aug-05 19:30 046 7 gusting 7 22.2
2020-Aug-05 19:20 314 6 gusting 10 22.8
2020-Aug-05 19:10 314 3 gusting 3 24.4
2020-Aug-05 19:00 314 26.7
2020-Aug-05 18:50 314 27.2
2020-Aug-05 18:40 26.7
2020-Aug-05 18:30 314 26.1
2020-Aug-05 18:20 26.7
2020-Aug-05 18:10 156 0 gusting 0 27.8
2020-Aug-05 18:00 156 0 28.3
2020-Aug-05 17:50 156 27.2
2020-Aug-05 17:40 156 27.2
2020-Aug-05 17:30 156 27.8
2020-Aug-05 17:20 156 27.8
2020-Aug-05 17:10 156 27.8
2020-Aug-05 17:00 26.7
2020-Aug-05 16:50 156 26.7
2020-Aug-05 16:40 156 26.7
2020-Aug-05 16:30 156 27.8
2020-Aug-05 16:20 156 26.7
2020-Aug-05 16:10 156 1 gusting 2 26.7
2020-Aug-05 16:00 156 0 gusting 1 26.7
2020-Aug-05 15:50 156 26.7
2020-Aug-05 15:40 156 27.2
2020-Aug-05 15:30 156 27.8
2020-Aug-05 15:20 195 1 gusting 6 27.2
2020-Aug-05 15:10 193 4 gusting 6 27.2
2020-Aug-05 15:00 168 3 gusting 4 27.2
2020-Aug-05 14:50 178 2 gusting 3 27.8
2020-Aug-05 14:40 203 6 gusting 9 27.8
2020-Aug-05 14:30 203 7 gusting 9 27.2
2020-Aug-05 14:20 165 6 gusting 9 27.8
2020-Aug-05 14:10 203 6 gusting 6 28.3
2020-Aug-05 14:00 203 6 gusting 6 27.8
2020-Aug-05 13:50 170 6 gusting 6 28.3
2020-Aug-05 13:40 174 4 gusting 5 28.3
2020-Aug-05 13:30 167 1 gusting 2 28.3
2020-Aug-05 13:20 179 5 gusting 6 28.3
2020-Aug-05 13:10 167 4 gusting 6 27.8
2020-Aug-05 13:00 156 3 gusting 5 27.8
2020-Aug-05 12:50 170 6 gusting 6 27.8
2020-Aug-05 12:40 172 3 gusting 7 28.3
2020-Aug-05 12:30 186 6 gusting 7 27.8
2020-Aug-05 12:20 156 6 gusting 8 28.3
2020-Aug-05 12:10 150 9 gusting 12 28.3
2020-Aug-05 12:00 156 9 gusting 12 28.9
2020-Aug-05 11:50 156 9 gusting 9 27.8
2020-Aug-05 11:40 178 5 gusting 9 28.3
2020-Aug-05 11:30 170 6 gusting 7 28.3
2020-Aug-05 11:20 166 12 gusting 13 27.8
2020-Aug-05 11:10 144 9 gusting 12 28.9
2020-Aug-05 11:00 167 11 gusting 12 28.3
2020-Aug-05 10:50 183 12 gusting 13 29.4
2020-Aug-05 10:40 160 10 gusting 10 29.4
2020-Aug-05 10:30 150 7 gusting 11 29.4
2020-Aug-05 10:20 177 7 gusting 11 29.4
2020-Aug-05 10:10 162 4 gusting 6 28.3
2020-Aug-05 10:00 156 5 gusting 5 29.4
2020-Aug-05 09:50 167 8 gusting 10 28.9
2020-Aug-05 09:40 184 7 gusting 8 28.9
2020-Aug-05 09:30 181 10 gusting 13 28.3
2020-Aug-05 09:20 169 13 gusting 15 28.3
2020-Aug-05 09:10 164 6 gusting 9 28.3
2020-Aug-05 09:00 170 12 gusting 13 28.3
2020-Aug-05 08:50 148 7 gusting 8 27.8
2020-Aug-05 08:40 175 7 gusting 8 28.3
2020-Aug-05 08:30 150 11 gusting 14 27.8
2020-Aug-05 08:20 142 11 gusting 14 27.2
2020-Aug-05 08:10 135 12 gusting 13 27.8
2020-Aug-05 08:00 146 8 gusting 13 27.8
2020-Aug-05 07:50 135 10 gusting 13 27.2
2020-Aug-05 07:40 156 11 gusting 12 27.2
2020-Aug-05 07:30 156 9 gusting 12 27.2
2020-Aug-05 07:20 156 12 gusting 15 27.2
2020-Aug-05 07:10 164 10 gusting 13 26.7
2020-Aug-05 07:00 145 9 gusting 11 26.7
2020-Aug-05 06:50 151 9 gusting 11 26.7
2020-Aug-05 06:40 135 9 gusting 11 26.1
2020-Aug-05 06:30 118 7 gusting 13 26.7
2020-Aug-05 06:20 157 8 gusting 9 26.1
2020-Aug-05 06:10 157 4 gusting 7 26.1
2020-Aug-05 06:00 153 2 gusting 4 25.6
2020-Aug-05 05:50 129 4 gusting 2 25.6
2020-Aug-05 05:40 122 1 gusting 2 25.6
2020-Aug-05 05:30 112 1 gusting 1 25.0
2020-Aug-05 05:20 112 25.0
2020-Aug-05 05:10 090 24.4
2020-Aug-05 05:00 068 0 gusting 0 24.4
2020-Aug-05 04:50 24.4
2020-Aug-05 04:40 24.4
2020-Aug-05 04:30 068 0 23.9
2020-Aug-05 04:20 061 23.3
2020-Aug-05 04:10 045 23.3
2020-Aug-05 04:00 045 22.8
2020-Aug-05 03:50 046 22.8
2020-Aug-05 03:40 045 22.8
2020-Aug-05 03:30 22.2
2020-Aug-05 03:20 034 22.2
2020-Aug-05 03:10 023 22.2
2020-Aug-05 02:50 22.8
2020-Aug-05 02:40 022 0 gusting 0 23.3
2020-Aug-05 02:30 023 24.4
2020-Aug-05 02:20 045 23.9
2020-Aug-05 02:10 24.4
2020-Aug-05 02:00 038 24.4
2020-Aug-05 01:50 045 24.4
2020-Aug-05 01:40 045 24.4
2020-Aug-05 01:30 046 23.9
2020-Aug-05 01:20 045 23.9
2020-Aug-05 01:10 23.9
2020-Aug-05 01:00 101 23.9
2020-Aug-05 00:50 156 24.4
2020-Aug-05 00:40 156 23.9
2020-Aug-05 00:30 156 24.4
2020-Aug-05 00:20 156 25.0
2020-Aug-05 00:10 156 25.0
2020-Aug-05 00:00 156 25.0
2020-Aug-04 23:50 156 24.4
2020-Aug-04 23:40 156 25.0
2020-Aug-04 23:30 156 0 gusting 0 25.0
2020-Aug-04 23:20 156 25.0
2020-Aug-04 23:10 156 25.0
2020-Aug-04 23:00 24.4
2020-Aug-04 22:50 156 25.0
2020-Aug-04 22:40 156 25.0
2020-Aug-04 22:30 24.4
2020-Aug-04 22:20 156 25.0
2020-Aug-04 22:10 156 25.0
2020-Aug-04 22:00 156 25.6
2020-Aug-04 21:50 25.0
2020-Aug-04 21:40 156 25.6
2020-Aug-04 21:30 25.6
2020-Aug-04 21:20 25.6
2020-Aug-04 21:10 156 25.6
2020-Aug-04 21:00 156 25.6
2020-Aug-04 20:50 156 25.0
2020-Aug-04 20:40 156 25.0
2020-Aug-04 20:30 156 25.6
2020-Aug-04 20:20 25.0
2020-Aug-04 20:10 156 26.1
2020-Aug-04 20:00 156 26.7
2020-Aug-04 19:50 156 25.6
2020-Aug-04 19:40 157 25.6
2020-Aug-04 19:30 156 25.6
2020-Aug-04 19:20 157 25.6
2020-Aug-04 19:10 156 1 gusting 1 25.6
2020-Aug-04 19:00 25.6
2020-Aug-04 18:50 156 25.6
2020-Aug-04 18:40 156 1 gusting 3 25.6
2020-Aug-04 18:30 165 2 gusting 3 25.6
2020-Aug-04 18:20 156 25.6
2020-Aug-04 18:10 167 25.6
2020-Aug-04 18:00 181 1 gusting 2 25.6
2020-Aug-04 17:50 166 26.1
2020-Aug-04 17:40 181 0 gusting 2 25.6
2020-Aug-04 17:30 156 0 gusting 0 25.6
2020-Aug-04 17:20 156 4 gusting 5 26.1
2020-Aug-04 17:10 156 4 gusting 5 26.1
2020-Aug-04 17:00 181 4 gusting 4 26.1
2020-Aug-04 16:50 156 5 gusting 10 26.1
2020-Aug-04 16:40 170 6 gusting 7 26.1
2020-Aug-04 16:30 194 5 gusting 7 26.7
2020-Aug-04 16:20 166 8 gusting 11 26.7
2020-Aug-04 16:10 172 8 gusting 11 26.7
2020-Aug-04 16:00 154 6 gusting 10 26.7
2020-Aug-04 15:50 155 6 gusting 12 26.7
2020-Aug-04 15:40 156 12 gusting 13 26.7
2020-Aug-04 15:30 138 6 gusting 9 26.7
2020-Aug-04 15:20 156 11 gusting 11 26.7
2020-Aug-04 15:10 156 10 gusting 11 26.7
2020-Aug-04 15:00 149 9 gusting 10 27.2
2020-Aug-04 14:50 170 10 gusting 13 27.2
2020-Aug-04 14:40 148 8 gusting 13 27.2
2020-Aug-04 14:30 140 8 gusting 15 27.8
2020-Aug-04 14:20 160 10 gusting 15 27.2
2020-Aug-04 14:10 172 9 gusting 13 27.8
2020-Aug-04 14:00 156 12 gusting 14 27.8
2020-Aug-04 13:50 182 11 gusting 11 27.2
2020-Aug-04 13:40 168 11 gusting 12 27.8
2020-Aug-04 13:30 173 13 gusting 13 27.8
2020-Aug-04 13:20 156 9 gusting 12 27.8
2020-Aug-04 13:10 156 8 gusting 8 28.3
2020-Aug-04 13:00 188 10 gusting 10 28.3
2020-Aug-04 12:50 170 11 gusting 13 28.3
2020-Aug-04 12:40 156 12 gusting 13 28.3
2020-Aug-04 12:30 156 11 gusting 13 28.3
2020-Aug-04 12:20 176 12 gusting 13 28.3
2020-Aug-04 12:10 193 7 gusting 11 29.4
2020-Aug-04 12:00 171 9 gusting 11 28.3
2020-Aug-04 11:50 192 8 gusting 11 29.4
2020-Aug-04 11:40 162 5 gusting 6 28.9
2020-Aug-04 11:30 191 11 gusting 11 28.9
2020-Aug-04 11:20 157 9 gusting 10 29.4
2020-Aug-04 11:10 156 10 gusting 14 29.4
2020-Aug-04 11:00 149 9 gusting 11 29.4
2020-Aug-04 10:50 169 11 gusting 12 28.9
2020-Aug-04 10:40 200 8 gusting 13 29.4
2020-Aug-04 10:30 156 6 gusting 9 29.4
2020-Aug-04 10:20 187 9 gusting 11 29.4
2020-Aug-04 10:10 149 7 gusting 9 29.4
2020-Aug-04 10:00 156 8 gusting 10 29.4
2020-Aug-04 09:50 166 7 gusting 8 29.4
2020-Aug-04 09:40 173 6 gusting 8 28.9
2020-Aug-04 09:30 181 7 gusting 7 28.9
2020-Aug-04 09:20 156 6 gusting 6 28.9
2020-Aug-04 09:10 164 4 gusting 6 28.9
2020-Aug-04 09:00 182 4 gusting 6 29.4